Weather History for Jackson, KY

Change the Weather History Date:

Wednesday, February 27, 2013

  Actual Average Record
Temperature  
Mean Temperature 37 °F 42 °F  
Max Temperature 42 °F 51 °F 75 °F (1996)
Min Temperature 32 °F 33 °F 11 °F (1994)
Degree Days  
Heating Degree Days 28 23  
Month to date heating degree days 737 711  
Since 1 July heating degree days 3193 3277  
Cooling Degree Days 0 0  
Month to date cooling degree days 0 0  
Year to date cooling degree days 0 0  
Moisture  
Dew Point 32 °F    
Average Humidity 86    
Maximum Humidity 96    
Minimum Humidity 76    
Precipitation  
Precipitation 0.11 in 0.14 in 0.90 in (1987)
Month to date precipitation 1.85 3.62  
Year to date precipitation 7.58 7.23  
Snow  
Snow 0.30 in 0.20 in - ()
Month to date snowfall 4.6 6.8  
Since 1 July snowfall 8.6 19.4  
Snow Depth 0.00 in    
Sea Level Pressure  
Sea Level Pressure 29.74 in    
Wind  
Wind Speed 6 mph (SW)    
Max Wind Speed 14 mph    
Max Gust Speed 26 mph    
Visibility 6 miles    
Events Rain , Snow    
T = Trace of Precipitation, MM = Missing Value Source: NWS Daily Summary

Daily Weather History Graph

Daily Weather History Graph

Search for Another Location

Airport:

Trip Planner

Search our weather history database for the weather conditions in past years. The results will help you decide how hot, cold, wet, or windy it might be!

Date:

Astronomy

Feb. 27, 2013 Rise Set
Actual Time 7:07 AM EST 6:25 PM EST
Civil Twilight 6:40 AM EST 6:51 PM EST
Nautical Twilight 6:10 AM EST 7:21 PM EST
Astronomical Twilight 5:40 AM EST 7:52 PM EST
Moon 8:41 PM EST (2/27) 7:45 AM EST (2/27)
Length of Visible Light 12h 10m
Length of Day
11h 18m
Waning Gibbous, 96% of the Moon is Illuminated
Feb 27
Waning Gibbous
Mar 4
Last Quarter
Mar 11
New
Mar 19
First Quarter
Mar 27
Full

Hourly Weather History & Observations

Time (EST) Temp. Windchill Dew Point Humidity Pressure Visibility Wind Dir Wind Speed Gust Speed Precip Events Conditions
12:19 AM 42.8 °F 38.6 °F 33.8 °F 70% 29.59 in 10.0 mi Variable 6.9 mph - 0.00 in   Overcast
12:53 AM 39.0 °F 31.4 °F 35.1 °F 86% 29.61 in 6.0 mi WSW 12.7 mph 26.5 mph 0.00 in Rain Light Rain
1:28 AM 37.4 °F 32.1 °F 35.6 °F 93% 29.62 in 10.0 mi Variable 6.9 mph 17.3 mph 0.01 in Rain Light Rain
1:53 AM 37.9 °F 31.5 °F 35.1 °F 89% 29.63 in 10.0 mi SW 9.2 mph 23.0 mph 0.01 in Rain Light Rain
2:01 AM 37.4 °F 32.8 °F 33.8 °F 87% 29.63 in 10.0 mi Variable 5.8 mph 20.7 mph 0.00 in Rain Light Rain
2:53 AM 37.9 °F 32.7 °F 34.0 °F 86% 29.64 in 10.0 mi Variable 6.9 mph 17.3 mph 0.00 in   Overcast
3:53 AM 37.0 °F 31.6 °F 34.0 °F 89% 29.64 in 10.0 mi Variable 6.9 mph - 0.01 in   Overcast
4:53 AM 37.0 °F 33.3 °F 34.0 °F 89% 29.67 in 10.0 mi Variable 4.6 mph - 0.00 in   Overcast
5:53 AM 37.9 °F 34.4 °F 33.1 °F 83% 29.68 in 10.0 mi Variable 4.6 mph - N/A   Overcast
6:53 AM 37.9 °F 34.4 °F 32.0 °F 79% 29.70 in 10.0 mi Variable 4.6 mph 18.4 mph N/A   Overcast
7:53 AM 36.0 °F 32.1 °F 32.0 °F 86% 29.74 in 7.0 mi Variable 4.6 mph - 0.00 in Rain Light Rain
8:00 AM 35.6 °F 29.2 °F 33.8 °F 93% 29.73 in 8.0 mi SW 8.1 mph - 0.00 in Rain Light Rain
8:25 AM 35.6 °F 31.7 °F 33.8 °F 93% 29.74 in 2.5 mi Variable 4.6 mph - 0.01 in Rain Light Rain
8:36 AM 35.6 °F 32.8 °F 33.8 °F 93% 29.74 in 5.0 mi Variable 3.5 mph - 0.01 in Rain Light Rain
8:53 AM 36.0 °F 32.1 °F 34.0 °F 93% 29.76 in 9.0 mi Variable 4.6 mph - 0.01 in   Overcast
9:07 AM 35.6 °F - 33.8 °F 93% 29.75 in 7.0 mi Calm Calm - 0.00 in Rain Light Rain
9:53 AM 36.0 °F 31.1 °F 34.0 °F 93% 29.78 in 7.0 mi Variable 5.8 mph - 0.00 in Rain Light Rain
10:20 AM 37.4 °F 32.8 °F 33.8 °F 87% 29.76 in 10.0 mi Variable 5.8 mph - 0.00 in   Overcast
10:53 AM 37.9 °F 34.4 °F 34.0 °F 86% 29.77 in 10.0 mi Variable 4.6 mph - 0.00 in   Overcast
11:26 AM 37.4 °F 34.9 °F 33.8 °F 87% 29.76 in 8.0 mi Variable 3.5 mph - N/A Rain Light Rain
11:53 AM 37.0 °F 33.3 °F 33.1 °F 86% 29.77 in 6.0 mi Variable 4.6 mph - 0.00 in Rain Light Rain
12:39 PM 37.4 °F 34.9 °F 33.8 °F 87% 29.74 in 10.0 mi Variable 3.5 mph - 0.00 in   Overcast
12:53 PM 37.9 °F 32.7 °F 33.1 °F 83% 29.75 in 10.0 mi Variable 6.9 mph - 0.00 in Rain Light Rain
1:53 PM 37.9 °F 31.5 °F 30.9 °F 76% 29.75 in 10.0 mi SW 9.2 mph 18.4 mph 0.00 in   Overcast
2:53 PM 37.9 °F 32.7 °F 32.0 °F 79% 29.73 in 10.0 mi Variable 6.9 mph - N/A   Overcast
3:53 PM 37.9 °F 32.7 °F 30.0 °F 73% 29.74 in 10.0 mi Variable 6.9 mph 20.7 mph N/A   Overcast
4:53 PM 37.9 °F 35.5 °F 30.9 °F 76% 29.76 in 10.0 mi Variable 3.5 mph - N/A   Overcast
5:53 PM 35.1 °F 31.0 °F 30.9 °F 85% 29.78 in 3.0 mi SW 4.6 mph - 0.01 in Rain Rain
6:25 PM 33.8 °F 27.7 °F 32.0 °F 93% 29.77 in 5.0 mi WSW 6.9 mph - 0.01 in Snow Light Snow
6:53 PM 34.0 °F 31.0 °F 32.0 °F 92% 29.80 in 3.0 mi Variable 3.5 mph - 0.02 in Snow Light Snow
7:21 PM 33.8 °F 29.6 °F 32.0 °F 93% 29.78 in 4.0 mi Variable 4.6 mph - 0.01 in Snow Light Snow
7:53 PM 34.0 °F 28.8 °F 32.0 °F 92% 29.81 in 5.0 mi Variable 5.8 mph - 0.02 in Snow Light Snow
8:01 PM 33.8 °F 30.8 °F 32.0 °F 93% 29.79 in 6.0 mi Variable 3.5 mph - 0.00 in   Overcast
8:53 PM 33.1 °F 26.9 °F 32.0 °F 96% 29.81 in 6.0 mi Variable 6.9 mph - 0.00 in   Overcast
9:37 PM 33.8 °F - 30.2 °F 87% 29.78 in 1.8 mi Calm Calm - 0.00 in Snow Light Snow
9:42 PM 32.0 °F 28.7 °F 30.2 °F 93% 29.78 in 1.2 mi Variable 3.5 mph - 0.01 in Snow Light Snow
9:50 PM 32.0 °F 27.5 °F 30.2 °F 93% 29.79 in 1.0 mi Variable 4.6 mph - 0.01 in Snow Light Snow
9:53 PM 32.0 °F 27.5 °F 30.0 °F 92% 29.81 in 1.0 mi Variable 4.6 mph - 0.01 in Snow Light Snow
10:03 PM 32.0 °F 27.5 °F 30.2 °F 93% 29.79 in 0.8 mi Variable 4.6 mph - 0.01 in Snow Light Snow
10:11 PM 32.0 °F 27.5 °F 30.2 °F 93% 29.79 in 1.2 mi Variable 4.6 mph - 0.01 in Snow Light Snow
10:15 PM 32.0 °F 25.6 °F 30.2 °F 93% 29.79 in 2.0 mi Variable 6.9 mph - 0.01 in Snow Light Snow
10:28 PM 32.0 °F 27.5 °F 30.2 °F 93% 29.78 in 3.0 mi Variable 4.6 mph - 0.01 in Snow Light Snow
10:53 PM 32.0 °F 26.4 °F 30.0 °F 92% 29.81 in 5.0 mi Variable 5.8 mph - 0.01 in Snow Light Snow
11:00 PM 32.0 °F 28.7 °F 30.2 °F 93% 29.78 in 6.0 mi SW 3.5 mph - 0.00 in   Overcast
11:53 PM 32.0 °F - 30.9 °F 96% 29.79 in 3.0 mi Calm Calm - 0.00 in Snow Light Snow
11:56 PM 32.0 °F 28.7 °F 30.2 °F 93% 29.76 in 2.0 mi Variable 3.5 mph - 0.00 in Snow Light Snow